Location: Monrovia
(34.7865°N, 86.7139°W)
Time: 00:48:39
(UTC+00:00)

CARTOSAT-1 - Pass Details

Date: 14 July 2020
Orbit: 617 x 618 km, 97.8° (Epoch: 12 August)

Event Time Altitude Azimuth Distance (km) Brightness Sun altitude
Exits shadow 03:38:12 76° 296° (WNW) 640 3.6 -25.2°
Drops below altitude 10° 03:42:19 10° 345° (NNW) 1,986 7.1 -25.7°
Sets 03:44:31 0° 347° (NNW) 2,896 8.1 -25.9°
